Tucson, AZ

4:25 PM MST on September 25, 2016 (GMT -0700)
Davis-Monthan Air Force Base

Weather History for KDMA - August, 2014

Change the Weather History Date:

Sunday, August 24, 2014

  Actual Average Record
Temperature  
Mean Temperature 83 °F -  
Max Temperature 95 °F 95 °F 108 °F (1985)
Min Temperature 71 °F 70 °F 64 °F (1992)
Cooling Degree Days 18    
Growing Degree Days 33 (Base 50)    
Moisture  
Dew Point 57 °F    
Average Humidity 43    
Maximum Humidity 64    
Minimum Humidity 24    
Precipitation  
Precipitation 0.00 in - - ()
Sea Level Pressure  
Sea Level Pressure 29.82 in    
Wind  
Wind Speed 6 mph (SSW)    
Max Wind Speed 12 mph    
Max Gust Speed 16 mph    
Visibility 10 miles    
Events      
Averages and records for this station are not official NWS values.
T = Trace of Precipitation, MM = Missing Value Source: NWS Daily Summary

Daily Weather History Graph

Daily Weather History Graph

Search for Another Location

Airport or City:

Trip Planner

Search our weather history database for the weather conditions in past years. The results will help you decide how hot, cold, wet, or windy it might be!

Date:

Astronomy

Aug. 24, 2014 Rise Set
Actual Time 5:53 AM MST 6:57 PM MST
Civil Twilight 5:28 AM MST 7:22 PM MST
Nautical Twilight 4:58 AM MST 7:52 PM MST
Astronomical Twilight 4:27 AM MST 8:23 PM MST
Moon 5:07 AM MST (8/24) 6:19 PM MST (8/24)
Length of Visible Light 13h 54m
Length of Day
13h 03m
Waning Crescent, 1% of the Moon is Illuminated
Aug 24
Waning Crescent
Aug 25
New
Sep 2
First Quarter
Sep 8
Full
Sep 15
Last Quarter

Hourly Weather History & Observations

Time (MST) Temp. Heat Index Dew Point Humidity Pressure Visibility Wind Dir Wind Speed Gust Speed Precip Events Conditions
12:17 AM 77.0 °F - 57.2 °F 50% 29.94 in 10.0 mi South 4.6 mph - N/A   Clear
12:25 AM 77.0 °F - 57.2 °F 50% 29.94 in 10.0 mi SSE 4.6 mph - N/A   Clear
12:58 AM 75.7 °F - 58.5 °F 55% 29.81 in 10.0 mi SE 6.9 mph - N/A   Clear
12:59 AM 75.2 °F - 59.0 °F 57% 29.75 in 10.0 mi North - - N/A   Clear
1:58 AM 75.0 °F - 58.5 °F 56% 29.81 in 10.0 mi SSE 5.8 mph - N/A   Clear
2:00 AM 75.2 °F - 59.0 °F 57% 29.94 in 10.0 mi North - - N/A   Clear
2:58 AM 74.5 °F - 58.1 °F 57% 29.81 in 10.0 mi SSE 5.8 mph - N/A   Clear
4:58 AM 71.8 °F - 58.8 °F 64% 29.81 in 10.0 mi SSE 8.1 mph - N/A   Clear
5:58 AM 71.8 °F - 58.3 °F 62% 29.82 in 10.0 mi SSE 6.9 mph - N/A   Clear
6:58 AM 74.5 °F - 59.0 °F 58% 29.83 in 10.0 mi SE 5.8 mph - N/A   Clear
7:58 AM 78.3 °F - 59.0 °F 51% 29.83 in 10.0 mi SSE 5.8 mph - N/A   Clear
8:58 AM 82.9 °F 83.0 °F 59.4 °F 45% 29.85 in 10.0 mi SE 4.6 mph - N/A   Clear
10:58 AM 88.0 °F 86.7 °F 56.8 °F 35% 29.85 in 10.0 mi SW 5.8 mph - N/A   Clear
12:58 PM 92.1 °F 89.7 °F 54.0 °F 27% 29.82 in 10.0 mi SSW 8.1 mph - N/A   Clear
1:58 PM 94.8 °F 92.8 °F 54.5 °F 26% 29.78 in 10.0 mi Variable 4.6 mph - N/A   Clear
2:58 PM 95.0 °F 92.5 °F 53.4 °F 24% 29.75 in 10.0 mi West 5.8 mph - N/A   Clear
3:58 PM 95.0 °F - 52.3 °F 24% 29.75 in 10.0 mi West 11.5 mph 16.1 mph N/A   Scattered Clouds
4:58 PM 94.5 °F - 52.0 °F 24% 29.75 in 10.0 mi WNW 4.6 mph - N/A   Partly Cloudy
5:58 PM 93.9 °F - 51.4 °F 24% 29.74 in 10.0 mi West 10.4 mph - N/A   Clear
6:58 PM 91.8 °F - 52.0 °F 26% 29.75 in 10.0 mi SW 10.4 mph - N/A   Mostly Cloudy
8:58 PM 85.6 °F 84.0 °F 54.0 °F 34% 29.80 in 10.0 mi WSW 4.6 mph - N/A   Clear
9:58 PM 85.1 °F 83.3 °F 53.1 °F 33% 29.81 in 10.0 mi WSW 3.5 mph - N/A   Clear
10:58 PM 82.0 °F 82.4 °F 59.9 °F 47% 29.83 in 10.0 mi South 6.9 mph - N/A   Clear
11:58 PM 81.3 °F 82.3 °F 62.4 °F 52% 29.84 in 10.0 mi South 5.8 mph - N/A   Clear